Weather History for Muscatine, IA

Change the Weather History Date:

Wednesday, March 13, 2013

  Actual Average Record
Temperature  
Mean Temperature 28 °F -  
Max Temperature 35 °F 44 °F 77 °F (2007)
Min Temperature 21 °F 27 °F 5 °F (1975)
Degree Days  
Heating Degree Days 37    
Moisture  
Dew Point 13 °F    
Average Humidity 58    
Maximum Humidity 80    
Minimum Humidity 33    
Precipitation  
Precipitation 0.00 in - - ()
Sea Level Pressure  
Sea Level Pressure 30.33 in    
Wind  
Wind Speed 13 mph (NW)    
Max Wind Speed 18 mph    
Max Gust Speed 23 mph    
Visibility 10 miles    
Events Snow    
Averages and records for this station are not official NWS values.
T = Trace of Precipitation, MM = Missing Value Source: NWS Daily Summary

Daily Weather History Graph

Daily Weather History Graph

Search for Another Location

Airport:

Trip Planner

Search our weather history database for the weather conditions in past years. The results will help you decide how hot, cold, wet, or windy it might be!

Date:

Astronomy

Mar. 13, 2013 Rise Set
Actual Time 7:19 AM CDT 7:09 PM CDT
Civil Twilight 6:51 AM CDT 7:36 PM CDT
Nautical Twilight 6:19 AM CDT 8:08 PM CDT
Astronomical Twilight 5:47 AM CDT 8:41 PM CDT
Moon 7:57 AM CDT (3/13) 9:28 PM CDT (3/13)
Length of Visible Light 12h 45m
Length of Day
11h 50m
Waxing Crescent, 4% of the Moon is Illuminated
Mar 13
Waxing Crescent
Mar 19
First Quarter
Mar 27
Full
Apr 2
Last Quarter
Apr 10
New

Hourly Weather History & Observations

Time (CDT) Temp. Windchill Dew Point Humidity Pressure Visibility Wind Dir Wind Speed Gust Speed Precip Events Conditions
12:55 AM 24.8 °F 12.4 °F 17.6 °F 74% 30.17 in 10.0 mi WNW 15.0 mph - N/A Snow Light Snow
1:15 AM 24.8 °F 12.4 °F 15.8 °F 69% 30.17 in 10.0 mi WNW 15.0 mph 21.9 mph N/A   Overcast
1:35 AM 24.8 °F 11.1 °F 15.8 °F 69% 30.17 in 10.0 mi WNW 18.4 mph - N/A   Scattered Clouds
1:55 AM 23.0 °F 10.6 °F 15.8 °F 74% 30.18 in 10.0 mi WNW 13.8 mph 23.0 mph N/A   Clear
2:15 AM 23.0 °F 9.6 °F 15.8 °F 74% 30.19 in 10.0 mi WNW 16.1 mph 21.9 mph N/A   Clear
2:35 AM 23.0 °F 11.1 °F 15.8 °F 74% 30.19 in 10.0 mi WNW 12.7 mph - N/A   Clear
2:55 AM 23.0 °F 10.6 °F 15.8 °F 74% 30.20 in 10.0 mi WNW 13.8 mph 20.7 mph N/A   Clear
3:15 AM 21.2 °F 7.3 °F 15.8 °F 80% 30.20 in 10.0 mi WNW 16.1 mph - N/A   Clear
3:55 AM 21.2 °F 8.9 °F 15.8 °F 80% 30.21 in 10.0 mi WNW 12.7 mph - N/A   Clear
4:15 AM 21.2 °F 7.8 °F 14.0 °F 74% 30.21 in 10.0 mi WNW 15.0 mph - N/A   Clear
4:35 AM 21.2 °F 8.3 °F 14.0 °F 74% 30.22 in 10.0 mi WNW 13.8 mph 20.7 mph N/A   Clear
4:55 AM 21.2 °F 8.3 °F 14.0 °F 74% 30.23 in 10.0 mi WNW 13.8 mph - N/A   Clear
5:15 AM 21.2 °F 7.8 °F 14.0 °F 74% 30.24 in 10.0 mi WNW 15.0 mph 19.6 mph N/A   Clear
5:35 AM 21.2 °F 7.8 °F 14.0 °F 74% 30.25 in 10.0 mi WNW 15.0 mph - N/A   Clear
5:55 AM 21.2 °F 7.8 °F 14.0 °F 74% 30.26 in 10.0 mi WNW 15.0 mph - N/A   Clear
6:15 AM 21.2 °F 7.8 °F 12.2 °F 68% 30.26 in 10.0 mi WNW 15.0 mph 18.4 mph N/A   Clear
6:35 AM 21.2 °F 8.3 °F 12.2 °F 68% 30.27 in 10.0 mi WNW 13.8 mph - N/A   Clear
6:55 AM 21.2 °F 9.5 °F 12.2 °F 68% 30.28 in 10.0 mi WNW 11.5 mph - N/A   Clear
7:15 AM 21.2 °F 8.3 °F 12.2 °F 68% 30.28 in 10.0 mi WNW 13.8 mph 20.7 mph N/A   Clear
7:35 AM 21.2 °F 8.9 °F 12.2 °F 68% 30.30 in 10.0 mi NW 12.7 mph - N/A   Clear
7:55 AM 21.2 °F 7.8 °F 12.2 °F 68% 30.30 in 10.0 mi WNW 15.0 mph - N/A   Clear
8:15 AM 21.2 °F 9.5 °F 12.2 °F 68% 30.31 in 10.0 mi NW 11.5 mph - N/A   Clear
8:35 AM 23.0 °F 12.4 °F 12.2 °F 63% 30.32 in 10.0 mi NW 10.4 mph - N/A   Clear
8:55 AM 23.0 °F 9.6 °F 14.0 °F 68% 30.33 in 10.0 mi WNW 16.1 mph - N/A   Clear
9:15 AM 24.8 °F 12.9 °F 14.0 °F 64% 30.34 in 10.0 mi NW 13.8 mph 18.4 mph N/A   Clear
9:35 AM 24.8 °F 12.4 °F 12.2 °F 59% 30.35 in 10.0 mi NW 15.0 mph 21.9 mph N/A   Clear
9:55 AM 24.8 °F 12.9 °F 12.2 °F 59% 30.36 in 10.0 mi NW 13.8 mph - N/A   Clear
10:15 AM 26.6 °F 14.7 °F 14.0 °F 59% 30.36 in 10.0 mi NW 15.0 mph 20.7 mph N/A   Clear
10:35 AM 26.6 °F 15.7 °F 14.0 °F 59% 30.37 in 10.0 mi NW 12.7 mph - N/A   Clear
10:55 AM 26.6 °F 15.2 °F 12.2 °F 55% 30.37 in 10.0 mi NW 13.8 mph 21.9 mph N/A   Clear
11:15 AM 28.4 °F 16.6 °F 12.2 °F 51% 30.38 in 10.0 mi NW 16.1 mph - N/A   Clear
11:35 AM 28.4 °F 17.5 °F 12.2 °F 51% 30.39 in 10.0 mi NW 13.8 mph 20.7 mph N/A   Clear
11:55 AM 30.2 °F 19.3 °F 14.0 °F 51% 30.39 in 10.0 mi NW 15.0 mph - N/A   Clear
12:15 PM 30.2 °F 18.5 °F 12.2 °F 47% 30.39 in 10.0 mi NW 17.3 mph - N/A   Clear
12:35 PM 32.0 °F 22.1 °F 10.4 °F 41% 30.39 in 10.0 mi NW 13.8 mph - N/A   Clear
12:55 PM 32.0 °F 22.1 °F 8.6 °F 38% 30.40 in 10.0 mi NW 13.8 mph 23.0 mph N/A   Clear
1:15 PM 33.8 °F 24.3 °F 10.4 °F 38% 30.40 in 10.0 mi NNW 13.8 mph 21.9 mph N/A   Clear
1:35 PM 33.8 °F 25.8 °F 10.4 °F 38% 30.40 in 10.0 mi NW 10.4 mph 20.7 mph N/A   Clear
1:55 PM 33.8 °F 23.9 °F 12.2 °F 41% 30.39 in 10.0 mi WNW 15.0 mph 19.6 mph N/A   Clear
2:15 PM 33.8 °F 25.3 °F 12.2 °F 41% 30.39 in 10.0 mi WNW 11.5 mph 20.7 mph N/A   Clear
2:35 PM 35.6 °F 27.1 °F 12.2 °F 38% 30.38 in 10.0 mi NW 12.7 mph 17.3 mph N/A   Clear
2:55 PM 35.6 °F 26.2 °F 12.2 °F 38% 30.38 in 10.0 mi NW 15.0 mph 20.7 mph N/A   Clear
3:15 PM 35.6 °F 26.6 °F 12.2 °F 38% 30.38 in 10.0 mi WNW 13.8 mph 19.6 mph N/A   Clear
3:35 PM 35.6 °F 26.2 °F 10.4 °F 35% 30.38 in 10.0 mi WNW 15.0 mph - N/A   Clear
3:55 PM 35.6 °F 25.9 °F 12.2 °F 38% 30.38 in 10.0 mi WNW 16.1 mph - N/A   Clear
4:15 PM 35.6 °F 25.5 °F 12.2 °F 38% 30.38 in 10.0 mi NW 17.3 mph 20.7 mph N/A   Clear
4:35 PM 35.6 °F 26.6 °F 8.6 °F 33% 30.38 in 10.0 mi NW 13.8 mph 18.4 mph N/A   Clear
4:55 PM 35.6 °F 26.6 °F 10.4 °F 35% 30.38 in 10.0 mi NW 13.8 mph - N/A   Clear
5:15 PM 35.6 °F 26.6 °F 10.4 °F 35% 30.38 in 10.0 mi WNW 13.8 mph - N/A   Clear
5:35 PM 33.8 °F 25.3 °F 10.4 °F 38% 30.38 in 10.0 mi WNW 11.5 mph - N/A   Clear
5:55 PM 33.8 °F 25.3 °F 10.4 °F 38% 30.38 in 10.0 mi WNW 11.5 mph - N/A   Clear
6:15 PM 33.8 °F 25.8 °F 12.2 °F 41% 30.38 in 10.0 mi NW 10.4 mph - N/A   Clear
6:35 PM 33.8 °F 26.4 °F 10.4 °F 38% 30.38 in 10.0 mi NW 9.2 mph - N/A   Clear
6:55 PM 32.0 °F 26.4 °F 12.2 °F 44% 30.38 in 10.0 mi WNW 5.8 mph - N/A   Clear
7:15 PM 30.2 °F 24.3 °F 12.2 °F 47% 30.38 in 10.0 mi WNW 5.8 mph - N/A   Clear
7:35 PM 28.4 °F 24.6 °F 12.2 °F 51% 30.38 in 10.0 mi WNW 3.5 mph - N/A   Clear
7:55 PM 28.4 °F - 15.8 °F 59% 30.38 in 10.0 mi Calm Calm - N/A   Clear
8:15 PM 28.4 °F - 15.8 °F 59% 30.38 in 10.0 mi Calm Calm - N/A   Clear
8:35 PM 26.6 °F - 15.8 °F 64% 30.37 in 10.0 mi Calm Calm - N/A   Clear
8:55 PM 26.6 °F - 15.8 °F 64% 30.37 in 10.0 mi Calm Calm - N/A   Clear
9:15 PM 26.6 °F - 17.6 °F 69% 30.37 in 10.0 mi Calm Calm - N/A   Clear
9:35 PM 26.6 °F - 17.6 °F 69% 30.37 in 10.0 mi Calm Calm - N/A   Clear
9:55 PM 24.8 °F - 17.6 °F 74% 30.37 in 10.0 mi Calm Calm - N/A   Clear
10:15 PM 24.8 °F - 17.6 °F 74% 30.38 in 10.0 mi Calm Calm - N/A   Clear
10:35 PM 24.8 °F - 17.6 °F 74% 30.38 in 10.0 mi Calm Calm - N/A   Clear
10:55 PM 24.8 °F - 15.8 °F 69% 30.37 in 10.0 mi Calm Calm - N/A   Clear
11:15 PM 24.8 °F - 15.8 °F 69% 30.37 in 10.0 mi Calm Calm - N/A   Clear
11:35 PM 24.8 °F - 15.8 °F 69% 30.37 in 10.0 mi Calm Calm - N/A   Clear
11:55 PM 24.8 °F - 17.6 °F 74% 30.36 in 10.0 mi Calm Calm - N/A   Clear